| time (UTC) | temp C | wind direction | speed KPH | gust KPH | rain 1hr cm | rain 24hr cm | rain mn cm | humidity % | barometer mb |
| 20260510164342 | 23 | 61 | 1.6 | 4.8 | 0.00 | 0.00 | 0.00 | 91 | 1017.1 |
| 20260510163841 | 24 | 92 | 3.2 | 3.2 | 0.00 | 0.00 | 0.00 | 91 | 1017.2 |
| 20260510163338 | 24 | 49 | 1.6 | 4.8 | 0.00 | 0.00 | 0.00 | 92 | 1017.3 |
| 20260510162837 | 24 | 61 | 1.6 | 4.8 | 0.00 | 0.00 | 0.00 | 92 | 1017.2 |
| 20260510162335 | 24 | 56 | 1.6 | 3.2 | 0.00 | 0.00 | 0.00 | 93 | 1017.4 |
| 20260510161830 | 23 | 50 | 0.0 | 1.6 | 0.00 | 0.00 | 0.00 | 93 | 1017.4 |
| 20260510161327 | 23 | 55 | 1.6 | 3.2 | 0.00 | 0.00 | 0.00 | 93 | 1017.3 |
| 20260510160825 | 23 | 43 | 1.6 | 3.2 | 0.00 | 0.00 | 0.00 | 94 | 1017.4 |
| 20260510160321 | 23 | 74 | 0.0 | 4.8 | 0.00 | 0.00 | 0.00 | 95 | 1017.4 |
| 20260510155820 | 23 | 68 | 3.2 | 4.8 | 0.00 | 0.00 | 0.00 | 95 | 1017.2 |
| 20260510155318 | 23 | 57 | 1.6 | 4.8 | 0.00 | 0.00 | 0.00 | 95 | 1017.4 |
| 20260510154813 | 23 | 53 | 1.6 | 1.6 | 0.00 | 0.00 | 0.00 | 96 | 1017.1 |
| 20260510154309 | 23 | 77 | 3.2 | 3.2 | 0.00 | 0.00 | 0.00 | 96 | 1017.4 |
| 20260510153804 | 23 | 68 | 3.2 | 4.8 | 0.00 | 0.00 | 0.00 | 96 | 1017.5 |
| 20260510153300 | 23 | 64 | 4.8 | 4.8 | 0.00 | 0.00 | 0.00 | 96 | 1017.2 |
| 20260510152757 | 23 | 39 | 0.0 | 3.2 | 0.00 | 0.00 | 0.00 | 97 | 1017.3 |
| 20260510152254 | 23 | 69 | 3.2 | 4.8 | 0.00 | 0.00 | 0.00 | 96 | 1017.4 |
| 20260510151750 | 23 | 46 | 1.6 | 3.2 | 0.00 | 0.00 | 0.00 | 97 | 1017.1 |
| 20260510151249 | 23 | 50 | 3.2 | 3.2 | 0.00 | 0.00 | 0.00 | 97 | 1017.1 |
| 20260510150744 | 23 | 56 | 1.6 | 4.8 | 0.00 | 0.00 | 0.00 | 97 | 1017.1 |
| 20260510150240 | 23 | 46 | 0.0 | 1.6 | 0.00 | 0.00 | 0.00 | 98 | 1017.3 |
| 20260510145736 | 23 | 39 | 0.0 | 3.2 | 0.00 | 0.00 | 0.00 | 98 | 1017.2 |
| 20260510145233 | 23 | 62 | 1.6 | 1.6 | 0.00 | 0.00 | 0.00 | 98 | 1017.1 |
| 20260510144728 | 23 | 42 | 0.0 | 0.0 | 0.00 | 0.00 | 0.00 | 97 | 1017.2 |
| 20260510144226 | 23 | 48 | 1.6 | 1.6 | 0.00 | 0.00 | 0.00 | 97 | 1017.0 |
| 20260510143720 | 23 | 11 | 0.0 | 1.6 | 0.00 | 0.00 | 0.00 | 98 | 1017.1 |
| 20260510143217 | 23 | 47 | 0.0 | 0.0 | 0.00 | 0.00 | 0.00 | 98 | 1017.1 |
| 20260510142713 | 23 | 47 | 0.0 | 1.6 | 0.00 | 0.00 | 0.00 | 97 | 1016.9 |
| 20260510142210 | 22 | 46 | 0.0 | 0.0 | 0.00 | 0.00 | 0.00 | 98 | 1017.0 |
| 20260510141707 | 22 | 39 | 0.0 | 3.2 | 0.00 | 0.00 | 0.00 | 98 | 1017.1 |
| 20260510141206 | 22 | 28 | 0.0 | 0.0 | 0.00 | 0.00 | 0.00 | 98 | 1017.0 |
| 20260510140701 | 22 | 59 | 1.6 | 1.6 | 0.00 | 0.00 | 0.00 | 98 | 1017.0 |
| 20260510140201 | 22 | 54 | 1.6 | 1.6 | 0.00 | 0.00 | 0.00 | 98 | 1017.1 |
| 20260510135656 | 22 | 35 | 0.0 | 0.0 | 0.00 | 0.00 | 0.00 | 98 | 1017.0 |
| 20260510135152 | 22 | 35 | 0.0 | 0.0 | 0.00 | 0.00 | 0.00 | 98 | 1016.8 |
| 20260510134650 | 22 | 45 | 0.0 | 1.6 | 0.00 | 0.00 | 0.00 | 98 | 1016.9 |
| 20260510134147 | 22 | 39 | 0.0 | 0.0 | 0.00 | 0.00 | 0.00 | 98 | 1016.9 |
| 20260510133643 | 22 | 47 | 0.0 | 1.6 | 0.00 | 0.00 | 0.00 | 98 | 1016.9 |
| 20260510133138 | 22 | 20 | 0.0 | 1.6 | 0.00 | 0.00 | 0.00 | 98 | 1016.7 |
| 20260510132635 | 22 | 33 | 0.0 | 0.0 | 0.00 | 0.00 | 0.00 | 98 | 1016.8 |
| 20260510132133 | 22 | 56 | 0.0 | 0.0 | 0.00 | 0.00 | 0.00 | 98 | 1016.9 |
| 20260510131630 | 22 | 29 | 0.0 | 0.0 | 0.00 | 0.00 | 0.00 | 98 | 1016.6 |
| 20260510131127 | 22 | 24 | 0.0 | 0.0 | 0.00 | 0.00 | 0.00 | 98 | 1016.6 |
| 20260510130623 | 22 | 67 | 1.6 | 1.6 | 0.00 | 0.00 | 0.00 | 98 | 1016.6 |
| 20260510130121 | 22 | 10 | 0.0 | 1.6 | 0.00 | 0.00 | 0.00 | 98 | 1016.3 |
| 20260510125617 | 22 | 33 | 0.0 | 0.0 | 0.00 | 0.00 | 0.00 | 98 | 1016.6 |
| 20260510125114 | 22 | 31 | 0.0 | 0.0 | 0.00 | 0.00 | 0.00 | 98 | 1016.5 |
| 20260510124610 | 22 | 39 | 0.0 | 1.6 | 0.00 | 0.00 | 0.00 | 98 | 1016.1 |
| 20260510124107 | 22 | 32 | 0.0 | 4.8 | 0.00 | 0.00 | 0.00 | 98 | 1016.2 |
| 20260510123603 | 22 | 37 | 0.0 | 1.6 | 0.00 | 0.00 | 0.00 | 98 | 1016.1 |
| 20260510123059 | 22 | 28 | 0.0 | 1.6 | 0.00 | 0.00 | 0.00 | 98 | 1016.0 |
| 20260510122555 | 22 | 28 | 0.0 | 1.6 | 0.00 | 0.00 | 0.00 | 98 | 1015.8 |
| 20260510122051 | 22 | 38 | 0.0 | 0.0 | 0.00 | 0.00 | 0.00 | 98 | 1015.9 |
| 20260510121548 | 22 | 18 | 0.0 | 0.0 | 0.00 | 0.00 | 0.00 | 98 | 1015.9 |
| 20260510121045 | 22 | 12 | 0.0 | 1.6 | 0.00 | 0.00 | 0.00 | 98 | 1015.9 |
| 20260510120543 | 22 | 34 | 0.0 | 0.0 | 0.00 | 0.00 | 0.00 | 98 | 1015.4 |
| 20260510120038 | 22 | 33 | 0.0 | 0.0 | 0.00 | 0.00 | 0.00 | 98 | 1015.5 |
| 20260510115535 | 22 | 35 | 0.0 | 0.0 | 0.00 | 0.00 | 0.00 | 98 | 1015.4 |
| 20260510115032 | 21 | 36 | 0.0 | 0.0 | 0.00 | 0.00 | 0.00 | 98 | 1015.5 |
| 20260510114528 | 21 | 36 | 0.0 | 0.0 | 0.00 | 0.00 | 0.00 | 98 | 1015.3 |
| 20260510114024 | 21 | 36 | 0.0 | 0.0 | 0.00 | 0.00 | 0.00 | 98 | 1015.3 |
| 20260510113520 | 21 | 36 | 0.0 | 0.0 | 0.00 | 0.00 | 0.00 | 98 | 1015.4 |
| 20260510113018 | 21 | 36 | 0.0 | 0.0 | 0.00 | 0.00 | 0.00 | 98 | 1015.5 |
| 20260510112514 | 21 | 36 | 0.0 | 0.0 | 0.00 | 0.00 | 0.00 | 98 | 1015.3 |
| 20260510112010 | 21 | 36 | 0.0 | 0.0 | 0.00 | 0.00 | 0.00 | 98 | 1014.9 |
| 20260510111507 | 21 | 36 | 0.0 | 0.0 | 0.00 | 0.00 | 0.00 | 98 | 1015.1 |
| 20260510111003 | 21 | 36 | 0.0 | 0.0 | 0.00 | 0.00 | 0.00 | 98 | 1014.9 |
| 20260510110459 | 21 | 43 | 0.0 | 0.0 | 0.00 | 0.00 | 0.00 | 98 | 1014.9 |
| 20260510105955 | 21 | 43 | 0.0 | 0.0 | 0.00 | 0.00 | 0.00 | 98 | 1014.6 |
| 20260510105451 | 21 | 25 | 0.0 | 0.0 | 0.00 | 0.00 | 0.00 | 98 | 1014.8 |
| 20260510104946 | 21 | 25 | 0.0 | 0.0 | 0.00 | 0.00 | 0.00 | 98 | 1014.9 |
| 20260510104443 | 21 | 25 | 0.0 | 0.0 | 0.00 | 0.00 | 0.00 | 98 | 1014.8 |
| 20260510103939 | 21 | 25 | 0.0 | 0.0 | 0.00 | 0.00 | 0.00 | 98 | 1014.7 |
| 20260510103437 | 21 | 25 | 0.0 | 0.0 | 0.00 | 0.00 | 0.00 | 97 | 1014.7 |
| 20260510102932 | 21 | 25 | 0.0 | 0.0 | 0.00 | 0.00 | 0.00 | 97 | 1014.7 |
| 20260510102428 | 21 | 25 | 0.0 | 0.0 | 0.00 | 0.00 | 0.00 | 97 | 1014.6 |
| 20260510101925 | 21 | 25 | 0.0 | 0.0 | 0.00 | 0.00 | 0.00 | 97 | 1014.5 |
| 20260510101423 | 21 | 25 | 0.0 | 0.0 | 0.00 | 0.00 | 0.00 | 98 | 1014.5 |
| 20260510100921 | 21 | 25 | 0.0 | 0.0 | 0.00 | 0.00 | 0.00 | 97 | 1014.4 |
| 20260510100417 | 21 | 25 | 0.0 | 0.0 | 0.00 | 0.00 | 0.00 | 97 | 1014.4 |
| 20260510095913 | 21 | 25 | 0.0 | 0.0 | 0.00 | 0.00 | 0.00 | 97 | 1014.2 |
| 20260510095409 | 21 | 25 | 0.0 | 0.0 | 0.00 | 0.00 | 0.00 | 97 | 1014.3 |
| 20260510094908 | 21 | 25 | 0.0 | 0.0 | 0.00 | 0.00 | 0.00 | 97 | 1014.3 |
| 20260510094403 | 21 | 25 | 0.0 | 0.0 | 0.00 | 0.00 | 0.00 | 97 | 1014.3 |
| 20260510093859 | 21 | 25 | 0.0 | 0.0 | 0.00 | 0.00 | 0.00 | 97 | 1014.2 |
| 20260510093355 | 21 | 25 | 0.0 | 0.0 | 0.00 | 0.00 | 0.00 | 97 | 1014.3 |
| 20260510092851 | 21 | 25 | 0.0 | 0.0 | 0.00 | 0.00 | 0.00 | 97 | 1013.9 |
| 20260510092348 | 21 | 25 | 0.0 | 0.0 | 0.00 | 0.00 | 0.00 | 97 | 1014.0 |
| 20260510091843 | 21 | 25 | 0.0 | 0.0 | 0.00 | 0.00 | 0.00 | 97 | 1013.8 |
| 20260510091341 | 21 | 25 | 0.0 | 0.0 | 0.00 | 0.00 | 0.00 | 97 | 1014.0 |
| 20260510090838 | 21 | 25 | 0.0 | 0.0 | 0.00 | 0.00 | 0.00 | 97 | 1013.7 |
| 20260510090334 | 21 | 25 | 0.0 | 0.0 | 0.00 | 0.00 | 0.00 | 97 | 1013.6 |
| 20260510085830 | 21 | 25 | 0.0 | 0.0 | 0.00 | 0.00 | 0.00 | 97 | 1013.4 |
| 20260510085330 | 21 | 25 | 0.0 | 0.0 | 0.00 | 0.00 | 0.00 | 97 | 1013.4 |
| 20260510084826 | 21 | 25 | 0.0 | 0.0 | 0.00 | 0.00 | 0.00 | 97 | 1013.7 |
| 20260510084323 | 21 | 25 | 0.0 | 0.0 | 0.00 | 0.00 | 0.00 | 97 | 1013.6 |
| 20260510083820 | 21 | 25 | 0.0 | 0.0 | 0.00 | 0.00 | 0.00 | 97 | 1013.3 |
| 20260510083317 | 21 | 25 | 0.0 | 0.0 | 0.00 | 0.00 | 0.00 | 97 | 1013.4 |
| 20260510082812 | 21 | 25 | 0.0 | 0.0 | 0.00 | 0.00 | 0.00 | 97 | 1013.5 |
| 20260510082310 | 21 | 25 | 0.0 | 0.0 | 0.00 | 0.00 | 0.00 | 97 | 1013.5 |
| 20260510081809 | 21 | 25 | 0.0 | 0.0 | 0.00 | 0.00 | 0.00 | 97 | 1013.5 |
| 20260510081304 | 21 | 25 | 0.0 | 0.0 | 0.00 | 0.00 | 0.00 | 97 | 1013.7 |
| 20260510080800 | 21 | 25 | 0.0 | 0.0 | 0.00 | 0.00 | 0.00 | 97 | 1013.6 |
| 20260510080255 | 21 | 25 | 0.0 | 0.0 | 0.00 | 0.00 | 0.00 | 97 | 1013.5 |
| 20260510075752 | 21 | 25 | 0.0 | 0.0 | 0.00 | 0.00 | 0.00 | 97 | 1013.6 |
| 20260510075250 | 21 | 49 | 0.0 | 0.0 | 0.00 | 0.00 | 0.00 | 97 | 1013.6 |
| 20260510074747 | 21 | 49 | 0.0 | 0.0 | 0.00 | 0.00 | 0.00 | 97 | 1013.6 |
| 20260510074243 | 21 | 49 | 0.0 | 0.0 | 0.00 | 0.00 | 0.00 | 97 | 1013.6 |
| 20260510073739 | 21 | 49 | 0.0 | 0.0 | 0.00 | 0.00 | 0.00 | 97 | 1013.3 |
| 20260510073236 | 20 | 49 | 0.0 | 0.0 | 0.00 | 0.00 | 0.00 | 97 | 1013.3 |
| 20260510072731 | 20 | 49 | 0.0 | 0.0 | 0.00 | 0.00 | 0.00 | 97 | 1013.3 |
| 20260510072228 | 20 | 49 | 0.0 | 0.0 | 0.00 | 0.00 | 0.00 | 97 | 1013.4 |
| 20260510071725 | 20 | 49 | 0.0 | 0.0 | 0.00 | 0.00 | 0.00 | 97 | 1013.3 |
| 20260510071221 | 20 | 49 | 0.0 | 0.0 | 0.00 | 0.00 | 0.00 | 97 | 1013.3 |
| 20260510070720 | 20 | 49 | 0.0 | 0.0 | 0.00 | 0.00 | 0.00 | 97 | 1013.3 |
| 20260510070217 | 20 | 49 | 0.0 | 0.0 | 0.00 | 0.00 | 0.00 | 97 | 1013.3 |
| 20260510065711 | 20 | 49 | 0.0 | 0.0 | 0.00 | 0.00 | 0.00 | 97 | 1013.4 |
| 20260510065208 | 20 | 49 | 0.0 | 0.0 | 0.00 | 0.00 | 0.00 | 97 | 1013.4 |
| 20260510064705 | 21 | 49 | 0.0 | 0.0 | 0.00 | 0.00 | 0.00 | 97 | 1013.4 |
| 20260510064203 | 20 | 52 | 0.0 | 0.0 | 0.00 | 0.00 | 0.00 | 97 | 1013.5 |
| 20260510063659 | 21 | 52 | 0.0 | 0.0 | 0.00 | 0.00 | 0.00 | 97 | 1013.4 |
| 20260510063155 | 21 | 52 | 0.0 | 0.0 | 0.00 | 0.00 | 0.00 | 97 | 1013.4 |
| 20260510062652 | 21 | 52 | 0.0 | 0.0 | 0.00 | 0.00 | 0.00 | 97 | 1013.7 |
| 20260510062148 | 21 | 52 | 0.0 | 0.0 | 0.00 | 0.00 | 0.00 | 97 | 1013.5 |
| 20260510061643 | 21 | 52 | 0.0 | 0.0 | 0.00 | 0.00 | 0.00 | 97 | 1013.5 |
| 20260510061141 | 21 | 52 | 0.0 | 0.0 | 0.00 | 0.00 | 0.00 | 97 | 1013.7 |
| 20260510060637 | 21 | 52 | 0.0 | 0.0 | 0.00 | 0.00 | 0.00 | 97 | 1013.9 |
| 20260510060133 | 21 | 52 | 0.0 | 0.0 | 0.00 | 0.00 | 0.00 | 97 | 1014.0 |
| 20260510055630 | 21 | 52 | 0.0 | 0.0 | 0.00 | 0.00 | 0.00 | 97 | 1014.0 |
| 20260510055128 | 21 | 52 | 0.0 | 0.0 | 0.00 | 0.00 | 0.00 | 97 | 1014.0 |
| 20260510054623 | 21 | 52 | 0.0 | 0.0 | 0.00 | 0.00 | 0.00 | 97 | 1014.1 |
| 20260510054119 | 21 | 52 | 0.0 | 0.0 | 0.00 | 0.00 | 0.00 | 97 | 1014.3 |
| 20260510053618 | 21 | 52 | 0.0 | 0.0 | 0.00 | 0.00 | 0.00 | 97 | 1014.1 |
| 20260510053115 | 21 | 52 | 0.0 | 0.0 | 0.00 | 0.00 | 0.00 | 97 | 1014.4 |
| 20260510052611 | 21 | 52 | 0.0 | 0.0 | 0.00 | 0.00 | 0.00 | 97 | 1014.7 |
| 20260510052108 | 21 | 52 | 0.0 | 0.0 | 0.00 | 0.00 | 0.00 | 97 | 1014.6 |
| 20260510051603 | 21 | 52 | 0.0 | 0.0 | 0.00 | 0.00 | 0.00 | 97 | 1014.6 |
| 20260510051100 | 21 | 52 | 0.0 | 0.0 | 0.00 | 0.00 | 0.00 | 97 | 1014.7 |
| 20260510050557 | 21 | 52 | 0.0 | 0.0 | 0.00 | 0.00 | 0.00 | 97 | 1014.6 |
| 20260510050054 | 21 | 35 | 0.0 | 0.0 | 0.00 | 0.00 | 0.00 | 97 | 1014.9 |
| 20260510045552 | 21 | 34 | 0.0 | 0.0 | 0.00 | 0.00 | 0.00 | 97 | 1014.9 |
| 20260510045047 | 21 | 34 | 0.0 | 0.0 | 0.00 | 0.00 | 0.00 | 97 | 1015.0 |
| 20260510044544 | 21 | 34 | 0.0 | 0.0 | 0.00 | 0.00 | 0.00 | 97 | 1014.9 |
| 20260510044042 | 21 | 34 | 0.0 | 0.0 | 0.00 | 0.00 | 0.00 | 97 | 1014.9 |
| 20260510043537 | 21 | 34 | 0.0 | 0.0 | 0.00 | 0.00 | 0.00 | 97 | 1014.9 |
| 20260510043033 | 21 | 34 | 0.0 | 0.0 | 0.00 | 0.00 | 0.00 | 97 | 1015.1 |
| 20260510042527 | 21 | 34 | 0.0 | 0.0 | 0.00 | 0.00 | 0.00 | 97 | 1015.0 |
| 20260510042027 | 21 | 34 | 0.0 | 0.0 | 0.00 | 0.00 | 0.00 | 97 | 1014.9 |
| 20260510041525 | 21 | 34 | 0.0 | 0.0 | 0.00 | 0.00 | 0.00 | 96 | 1014.9 |
| 20260510041022 | 21 | 34 | 0.0 | 0.0 | 0.00 | 0.00 | 0.00 | 96 | 1014.9 |
| 20260510040519 | 21 | 34 | 0.0 | 0.0 | 0.00 | 0.00 | 0.00 | 96 | 1014.9 |
| 20260510040015 | 21 | 34 | 0.0 | 0.0 | 0.00 | 0.81 | 0.81 | 96 | 1014.8 |
| 20260510035512 | 21 | 34 | 0.0 | 0.0 | 0.00 | 0.81 | 0.81 | 97 | 1014.7 |
| 20260510035010 | 21 | 34 | 0.0 | 0.0 | 0.00 | 0.81 | 0.81 | 96 | 1014.9 |
| 20260510034510 | 21 | 34 | 0.0 | 0.0 | 0.00 | 0.81 | 0.81 | 96 | 1014.8 |
| 20260510034006 | 21 | 34 | 0.0 | 0.0 | 0.00 | 0.81 | 0.81 | 96 | 1015.1 |
| 20260510033502 | 21 | 34 | 0.0 | 0.0 | 0.00 | 0.81 | 0.81 | 96 | 1015.2 |
| 20260510033000 | 21 | 34 | 0.0 | 0.0 | 0.00 | 0.81 | 0.81 | 96 | 1014.9 |
| 20260510032457 | 21 | 34 | 0.0 | 0.0 | 0.00 | 0.81 | 0.81 | 96 | 1014.9 |
| 20260510031956 | 21 | 34 | 0.0 | 0.0 | 0.00 | 0.81 | 0.81 | 96 | 1015.1 |
| 20260510031452 | 21 | 34 | 0.0 | 0.0 | 0.00 | 0.81 | 0.81 | 96 | 1014.8 |
| 20260510030948 | 21 | 34 | 0.0 | 0.0 | 0.00 | 0.81 | 0.81 | 96 | 1014.9 |
| 20260510030443 | 21 | 34 | 0.0 | 0.0 | 0.00 | 0.81 | 0.81 | 96 | 1014.9 |
| 20260510025941 | 21 | 34 | 0.0 | 0.0 | 0.00 | 0.81 | 0.81 | 96 | 1014.7 |
| 20260510025438 | 21 | 34 | 0.0 | 0.0 | 0.00 | 0.81 | 0.81 | 96 | 1014.9 |
| 20260510024936 | 21 | 34 | 0.0 | 0.0 | 0.00 | 0.81 | 0.81 | 96 | 1014.6 |
| 20260510024432 | 21 | 34 | 0.0 | 0.0 | 0.00 | 0.81 | 0.81 | 96 | 1014.5 |
| 20260510023928 | 21 | 34 | 0.0 | 0.0 | 0.00 | 0.81 | 0.81 | 96 | 1014.7 |
| 20260510023425 | 21 | 34 | 0.0 | 0.0 | 0.00 | 0.81 | 0.81 | 96 | 1014.3 |
| 20260510022922 | 21 | 34 | 0.0 | 0.0 | 0.00 | 0.81 | 0.81 | 96 | 1014.3 |
| 20260510022421 | 21 | 34 | 0.0 | 0.0 | 0.00 | 0.81 | 0.81 | 96 | 1014.3 |
| 20260510021920 | 21 | 34 | 0.0 | 0.0 | 0.00 | 0.81 | 0.81 | 96 | 1014.0 |
| 20260510021419 | 21 | 34 | 0.0 | 0.0 | 0.00 | 0.81 | 0.81 | 96 | 1014.0 |
| 20260510020915 | 21 | 34 | 0.0 | 0.0 | 0.00 | 0.81 | 0.81 | 96 | 1014.1 |
| 20260510020410 | 21 | 34 | 0.0 | 0.0 | 0.00 | 0.81 | 0.81 | 96 | 1013.9 |
| 20260510015906 | 21 | 34 | 0.0 | 0.0 | 0.00 | 0.81 | 0.81 | 96 | 1013.7 |
| 20260510015401 | 21 | 34 | 0.0 | 0.0 | 0.00 | 0.81 | 0.81 | 96 | 1013.5 |
| 20260510014857 | 21 | 34 | 0.0 | 0.0 | 0.00 | 0.81 | 0.81 | 96 | 1013.6 |
| 20260510014355 | 21 | 34 | 0.0 | 0.0 | 0.00 | 0.81 | 0.81 | 96 | 1013.5 |
| 20260510013851 | 21 | 34 | 0.0 | 0.0 | 0.00 | 0.81 | 0.81 | 96 | 1013.4 |
| 20260510013346 | 21 | 34 | 0.0 | 0.0 | 0.00 | 0.81 | 0.81 | 96 | 1013.8 |
| 20260510012841 | 21 | 34 | 0.0 | 0.0 | 0.00 | 0.81 | 0.81 | 95 | 1013.8 |
| 20260510012341 | 21 | 34 | 0.0 | 0.0 | 0.00 | 0.81 | 0.81 | 95 | 1013.8 |
| 20260510011836 | 21 | 34 | 0.0 | 0.0 | 0.00 | 0.81 | 0.81 | 95 | 1013.5 |
| 20260510011332 | 21 | 34 | 0.0 | 0.0 | 0.00 | 0.81 | 0.81 | 95 | 1013.2 |
| 20260510010828 | 21 | 34 | 0.0 | 0.0 | 0.00 | 0.81 | 0.81 | 95 | 1013.2 |
| 20260510010326 | 22 | 34 | 0.0 | 0.0 | 0.00 | 0.81 | 0.81 | 95 | 1013.1 |
| 20260510005822 | 21 | 34 | 0.0 | 0.0 | 0.00 | 0.81 | 0.81 | 95 | 1013.3 |
| 20260510005319 | 21 | 34 | 0.0 | 0.0 | 0.00 | 0.81 | 0.81 | 95 | 1013.7 |
| 20260510004817 | 21 | 34 | 0.0 | 0.0 | 0.00 | 0.81 | 0.81 | 95 | 1013.6 |
| 20260510004314 | 21 | 34 | 0.0 | 0.0 | 0.00 | 0.81 | 0.81 | 95 | 1013.4 |
| 20260510003811 | 22 | 23 | 0.0 | 0.0 | 0.00 | 0.81 | 0.81 | 95 | 1013.5 |
| 20260510003308 | 22 | 22 | 0.0 | 0.0 | 0.18 | 0.81 | 0.81 | 95 | 1013.8 |
| 20260510002807 | 22 | 27 | 0.0 | 0.0 | 0.18 | 0.81 | 0.81 | 95 | 1013.5 |
| 20260510002306 | 22 | 28 | 0.0 | 0.0 | 0.00 | 0.79 | 0.79 | 95 | 1013.5 |
| 20260510001800 | 22 | 28 | 0.0 | 0.0 | 0.00 | 0.79 | 0.79 | 95 | 1013.7 |
| 20260510001259 | 22 | 28 | 0.0 | 0.0 | 0.00 | 0.79 | 0.79 | 95 | 1013.7 |
| 20260510000754 | 22 | 28 | 0.0 | 0.0 | 0.00 | 0.79 | 0.79 | 95 | 1013.7 |
| 20260510000252 | 22 | 28 | 0.0 | 0.0 | 0.00 | 0.79 | 0.79 | 95 | 1013.7 |
| 20260509235749 | 22 | 28 | 0.0 | 0.0 | 0.00 | 0.79 | 0.79 | 95 | 1013.6 |
| 20260509235245 | 22 | 28 | 0.0 | 0.0 | 0.00 | 0.79 | 0.79 | 95 | 1013.5 |
| 20260509234741 | 22 | 28 | 0.0 | 0.0 | 0.00 | 0.79 | 0.79 | 95 | 1013.5 |
| 20260509234238 | 22 | 27 | 0.0 | 0.0 | 0.00 | 0.79 | 0.79 | 95 | 1013.5 |
| 20260509233737 | 22 | 27 | 0.0 | 0.0 | 0.00 | 0.79 | 0.79 | 94 | 1013.4 |
| 20260509233234 | 22 | 27 | 0.0 | 0.0 | 0.00 | 0.79 | 0.79 | 94 | 1013.4 |
| 20260509232730 | 22 | 28 | 0.0 | 0.0 | 0.00 | 0.79 | 0.79 | 94 | 1013.5 |
| 20260509232227 | 22 | 27 | 0.0 | 0.0 | 0.00 | 0.79 | 0.79 | 94 | 1013.5 |
| 20260509231723 | 22 | 27 | 0.0 | 0.0 | 0.00 | 0.79 | 0.79 | 94 | 1013.5 |
| 20260509231221 | 22 | 32 | 0.0 | 0.0 | 0.00 | 0.79 | 0.79 | 94 | 1013.6 |
| 20260509230718 | 22 | 35 | 0.0 | 1.6 | 0.00 | 0.79 | 0.79 | 94 | 1013.3 |
| 20260509230215 | 22 | 57 | 1.6 | 1.6 | 0.00 | 0.79 | 0.79 | 94 | 1013.1 |
| 20260509225710 | 22 | 38 | 0.0 | 0.0 | 0.00 | 0.79 | 0.79 | 94 | 1013.4 |
| 20260509225206 | 22 | 59 | 1.6 | 3.2 | 0.00 | 0.79 | 0.79 | 94 | 1013.4 |
| 20260509224702 | 22 | 37 | 0.0 | 1.6 | 0.00 | 0.79 | 0.79 | 94 | 1013.4 |
| 20260509224159 | 22 | 47 | 0.0 | 1.6 | 0.00 | 0.79 | 0.79 | 94 | 1013.3 |
| 20260509223656 | 22 | 35 | 3.2 | 3.2 | 0.00 | 0.79 | 0.79 | 94 | 1013.3 |
| 20260509223153 | 22 | 41 | 0.0 | 1.6 | 0.00 | 0.79 | 0.79 | 94 | 1013.3 |
| 20260509222650 | 22 | 37 | 0.0 | 0.0 | 0.00 | 0.79 | 0.79 | 94 | 1013.7 |
| 20260509222145 | 22 | 29 | 0.0 | 0.0 | 0.00 | 0.79 | 0.79 | 94 | 1013.6 |
| 20260509221642 | 22 | 43 | 0.0 | 4.8 | 0.00 | 0.79 | 0.79 | 94 | 1013.4 |
| 20260509221137 | 22 | 42 | 0.0 | 1.6 | 0.00 | 0.79 | 0.79 | 94 | 1013.3 |
| 20260509220634 | 22 | 67 | 3.2 | 6.4 | 0.00 | 0.79 | 0.79 | 94 | 1013.6 |
| 20260509220130 | 22 | 51 | 0.0 | 3.2 | 0.00 | 0.79 | 0.79 | 94 | 1013.6 |
| 20260509215626 | 22 | 39 | 0.0 | 0.0 | 0.00 | 0.79 | 0.79 | 94 | 1013.3 |
| 20260509215123 | 22 | 38 | 1.6 | 6.4 | 0.00 | 0.79 | 0.79 | 94 | 1013.4 |
| 20260509214620 | 22 | 54 | 1.6 | 4.8 | 0.00 | 0.79 | 0.79 | 94 | 1013.2 |
| 20260509214116 | 22 | 53 | 0.0 | 4.8 | 0.00 | 0.79 | 0.79 | 94 | 1013.3 |
| 20260509213613 | 22 | 280 | 1.6 | 3.2 | 0.13 | 0.79 | 0.79 | 94 | 1013.3 |
| 20260509213109 | 22 | 82 | 1.6 | 3.2 | 0.13 | 0.79 | 0.79 | 93 | 1013.1 |
| 20260509212607 | 22 | 347 | 1.6 | 3.2 | 0.00 | 0.76 | 0.76 | 93 | 1013.2 |
| 20260509212104 | 22 | 35 | 0.0 | 3.2 | 0.00 | 0.76 | 0.76 | 93 | 1013.4 |
| 20260509211559 | 22 | 44 | 0.0 | 1.6 | 0.00 | 0.76 | 0.76 | 93 | 1013.5 |
| 20260509211056 | 23 | 40 | 1.6 | 3.2 | 0.00 | 0.76 | 0.76 | 93 | 1013.1 |
| 20260509210553 | 23 | 13 | 3.2 | 4.8 | 0.00 | 0.76 | 0.76 | 93 | 1013.1 |
| 20260509210050 | 23 | 28 | 0.0 | 0.0 | 0.00 | 0.76 | 0.76 | 94 | 1013.1 |
| 20260509205549 | 23 | 25 | 0.0 | 1.6 | 0.00 | 0.76 | 0.76 | 94 | 1013.1 |
| 20260509205045 | 23 | 36 | 0.0 | 1.6 | 0.18 | 0.76 | 0.76 | 93 | 1013.1 |
| 20260509204542 | 23 | 18 | 0.0 | 0.0 | 0.30 | 0.76 | 0.76 | 93 | 1013.3 |
| 20260509204038 | 23 | 22 | 0.0 | 0.0 | 0.13 | 0.74 | 0.74 | 93 | 1013.0 |
| 20260509203534 | 23 | 26 | 0.0 | 0.0 | 0.18 | 0.71 | 0.71 | 93 | 1012.8 |
| 20260509203033 | 23 | 19 | 0.0 | 1.6 | 0.18 | 0.71 | 0.71 | 93 | 1013.2 |
| 20260509202533 | 23 | 19 | 0.0 | 0.0 | 0.00 | 0.69 | 0.69 | 93 | 1013.3 |
| 20260509202029 | 23 | 18 | 0.0 | 0.0 | 0.00 | 0.69 | 0.69 | 93 | 1012.9 |
| 20260509201524 | 23 | 21 | 0.0 | 0.0 | 0.00 | 0.69 | 0.69 | 92 | 1012.9 |
| 20260509201022 | 24 | 18 | 0.0 | 1.6 | 0.00 | 0.69 | 0.69 | 92 | 1013.0 |
| 20260509200521 | 23 | 29 | 0.0 | 0.0 | 0.00 | 0.69 | 0.69 | 92 | 1012.8 |
| 20260509200019 | 23 | 25 | 0.0 | 3.2 | 0.00 | 0.69 | 0.69 | 92 | 1013.1 |
| 20260509195514 | 23 | 31 | 0.0 | 1.6 | 0.13 | 0.69 | 0.69 | 91 | 1012.8 |
| 20260509195013 | 23 | 27 | 0.0 | 0.0 | 0.13 | 0.69 | 0.69 | 91 | 1012.7 |
| 20260509194509 | 23 | 40 | 0.0 | 0.0 | 0.00 | 0.66 | 0.66 | 90 | 1012.8 |
| 20260509194007 | 23 | 42 | 0.0 | 0.0 | 0.18 | 0.66 | 0.66 | 90 | 1013.0 |
| 20260509193506 | 23 | 41 | 0.0 | 0.0 | 0.48 | 0.66 | 0.66 | 89 | 1013.0 |
| 20260509193003 | 23 | 40 | 0.0 | 0.0 | 1.07 | 0.64 | 0.64 | 88 | 1012.9 |
| 20260509192500 | 24 | 48 | 0.0 | 1.6 | 1.68 | 0.56 | 0.56 | 87 | 1013.1 |
| 20260509191954 | 25 | 29 | 0.0 | 1.6 | 1.27 | 0.38 | 0.38 | 85 | 1013.3 |
| 20260509191450 | 25 | 48 | 0.0 | 1.6 | 0.61 | 0.25 | 0.25 | 83 | 1012.9 |
| 20260509190946 | 25 | 25 | 0.0 | 0.0 | 0.30 | 0.18 | 0.18 | 81 | 1013.0 |
| 20260509190443 | 26 | 45 | 0.0 | 0.0 | 0.18 | 0.15 | 0.15 | 79 | 1012.9 |
| 20260509185941 | 26 | 50 | 0.0 | 1.6 | 0.00 | 0.13 | 0.13 | 78 | 1012.6 |
| 20260509185438 | 26 | 51 | 0.0 | 0.0 | 0.00 | 0.13 | 0.13 | 77 | 1012.9 |
| 20260509184934 | 27 | 51 | 0.0 | 3.2 | 0.00 | 0.13 | 0.13 | 75 | 1012.7 |
| 20260509184433 | 27 | 25 | 0.0 | 1.6 | 0.00 | 0.13 | 0.13 | 73 | 1012.8 |
| 20260509183929 | 27 | 48 | 0.0 | 1.6 | 0.00 | 0.13 | 0.13 | 73 | 1012.6 |
| 20260509183423 | 28 | 30 | 0.0 | 0.0 | 0.00 | 0.13 | 0.13 | 74 | 1013.0 |
| 20260509182920 | 28 | 31 | 0.0 | 0.0 | 0.00 | 0.13 | 0.13 | 73 | 1012.8 |
| 20260509182416 | 28 | 51 | 0.0 | 1.6 | 0.00 | 0.13 | 0.13 | 73 | 1013.0 |
| 20260509181914 | 28 | 56 | 0.0 | 1.6 | 0.00 | 0.13 | 0.13 | 73 | 1013.0 |
| 20260509181411 | 28 | 56 | 1.6 | 3.2 | 0.00 | 0.13 | 0.13 | 71 | 1013.0 |
| 20260509180908 | 28 | 38 | 0.0 | 0.0 | 0.00 | 0.13 | 0.13 | 70 | 1013.0 |
| 20260509180404 | 28 | 46 | 0.0 | 1.6 | 0.00 | 0.13 | 0.13 | 70 | 1013.1 |
| 20260509175901 | 28 | 32 | 1.6 | 3.2 | 0.00 | 0.13 | 0.13 | 69 | 1013.3 |
| 20260509175357 | 28 | 27 | 1.6 | 3.2 | 0.00 | 0.13 | 0.13 | 70 | 1013.5 |
| 20260509174854 | 28 | 27 | 0.0 | 1.6 | 0.00 | 0.13 | 0.13 | 72 | 1013.4 |
| 20260509174350 | 28 | 22 | 1.6 | 3.2 | 0.00 | 0.13 | 0.13 | 72 | 1013.5 |
| 20260509173846 | 28 | 50 | 0.0 | 1.6 | 0.00 | 0.13 | 0.13 | 72 | 1013.4 |
| 20260509173341 | 27 | 29 | 0.0 | 1.6 | 0.00 | 0.13 | 0.13 | 74 | 1013.4 |
| 20260509172837 | 27 | 54 | 1.6 | 1.6 | 0.00 | 0.13 | 0.13 | 74 | 1013.4 |
| 20260509172334 | 27 | 49 | 0.0 | 0.0 | 0.00 | 0.13 | 0.13 | 76 | 1013.3 |
| 20260509171830 | 27 | 68 | 0.0 | 3.2 | 0.00 | 0.13 | 0.13 | 74 | 1013.4 |
| 20260509171326 | 27 | 36 | 0.0 | 3.2 | 0.00 | 0.13 | 0.13 | 74 | 1013.2 |
| 20260509170822 | 27 | 31 | 0.0 | 1.6 | 0.00 | 0.13 | 0.13 | 74 | 1013.4 |
| 20260509170318 | 27 | 27 | 0.0 | 1.6 | 0.00 | 0.13 | 0.13 | 74 | 1013.5 |
| 20260509165818 | 27 | 41 | 0.0 | 1.6 | 0.00 | 0.13 | 0.13 | 74 | 1013.5 |
| 20260509165313 | 27 | 34 | 0.0 | 1.6 | 0.00 | 0.13 | 0.13 | 76 | 1013.6 |
| 20260509164809 | 27 | 61 | 1.6 | 1.6 | 0.00 | 0.13 | 0.13 | 77 | 1013.5 |